• In United Kingdom
  • List of Countries
  • For 7 days
  • Water Temperature
  • Satellite Maps
  • Weather Map
  • Weather Widgets
  • user-avatar
    Login

    Hourly Weather Gaborone

    Today, 13 November, Tuesday

    Time Temperature Precipitation Wind Pressure Humidity
    00:00 +27°C° 0 mm 3 mps 680 mmHg 25%
    01:00 +26°C° 0 mm 3 mps 679 mmHg 27%
    02:00 +25°C° 0 mm 2 mps 679 mmHg 30%
    03:00 +25°C° 0 mm 2 mps 679 mmHg 32%
    04:00 +24°C° 0 mm 2 mps 679 mmHg 35%
    05:00 +23°C° 0 mm 2 mps 679 mmHg 37%
    06:00 +24°C° 0 mm 3 mps 679 mmHg 35%
    07:00 +26°C° 0 mm 3 mps 680 mmHg 33%
    08:00 +27°C° 0 mm 4 mps 680 mmHg 31%
    09:00 +29°C° 0 mm 3 mps 681 mmHg 27%
    10:00 +33°C° 0 mm 3 mps 681 mmHg 23%
    11:00 +35°C° 0 mm 2 mps 681 mmHg 18%
    12:00 +37°C° 0 mm 2 mps 680 mmHg 16%
    13:00 +39°C° 0 mm 1 mps 680 mmHg 14%
    14:00 +41°C° 0 mm 1 mps 680 mmHg 11%
    15:00 +40°C° 0 mm 1 mps 679 mmHg 11%
    16:00 +39°C° 0 mm 2 mps 678 mmHg 11%
    17:00 +39°C° 0 mm 2 mps 678 mmHg 11%
    18:00 +37°C° 0 mm 2 mps 678 mmHg 12%
    19:00 +36°C° 0 mm 2 mps 677 mmHg 14%
    20:00 +34°C° 0 mm 2 mps 677 mmHg 15%
    21:00 +34°C° 0 mm 2 mps 678 mmHg 16%
    22:00 +32°C° 0 mm 2 mps 678 mmHg 18%
    23:00 +31°C° 0 mm 2 mps 678 mmHg 19%

    Tomorrow, 14 November, Wednesday

    Time Temperature Precipitation Wind Pressure Humidity
    00:00 +31°C° 0 mm 2 mps 678 mmHg 21%
    01:00 +30°C° 0 mm 2 mps 677 mmHg 23%
    02:00 +29°C° 0 mm 3 mps 677 mmHg 25%
    03:00 +28°C° 0 mm 3 mps 677 mmHg 29%
    04:00 +27°C° 0 mm 2 mps 677 mmHg 33%
    05:00 +26°C° 0 mm 2 mps 677 mmHg 37%
    06:00 +27°C° 0 mm 3 mps 678 mmHg 34%
    07:00 +28°C° 0 mm 3 mps 678 mmHg 32%
    08:00 +29°C° 0 mm 4 mps 679 mmHg 30%
    09:00 +31°C° 0 mm 3 mps 679 mmHg 26%
    10:00 +34°C° 0 mm 3 mps 679 mmHg 23%
    11:00 +36°C° 0 mm 2 mps 679 mmHg 19%
    12:00 +38°C° 0 mm 2 mps 679 mmHg 16%
    13:00 +40°C° 0 mm 1 mps 678 mmHg 13%
    14:00 +42°C° 0 mm 1 mps 678 mmHg 11%
    15:00 +41°C° 0 mm 1 mps 677 mmHg 11%
    16:00 +41°C° 0 mm 1 mps 677 mmHg 10%
    17:00 +40°C° 0 mm 2 mps 676 mmHg 10%
    18:00 +39°C° 0 mm 2 mps 676 mmHg 12%
    19:00 +37°C° 0 mm 2 mps 676 mmHg 13%
    20:00 +36°C° 0 mm 2 mps 676 mmHg 14%
    21:00 +35°C° 0 mm 3 mps 677 mmHg 17%
    22:00 +34°C° 0 mm 3 mps 677 mmHg 20%
    23:00 +33°C° 0 mm 4 mps 677 mmHg 23%

    Day after tomorrow, 15 November, Thursday

    Time Temperature Precipitation Wind Pressure Humidity
    00:00 +32°C° 0 mm 4 mps 677 mmHg 25%
    01:00 +30°C° 0 mm 4 mps 677 mmHg 28%
    02:00 +29°C° 0 mm 3 mps 676 mmHg 31%
    03:00 +28°C° 0 mm 3 mps 677 mmHg 32%
    04:00 +27°C° 0 mm 3 mps 677 mmHg 34%
    05:00 +26°C° 0 mm 3 mps 677 mmHg 36%
    06:00 +27°C° 0 mm 4 mps 678 mmHg 33%
    07:00 +28°C° 0 mm 4 mps 679 mmHg 31%
    08:00 +29°C° 0 mm 5 mps 679 mmHg 29%
    09:00 +32°C° 0 mm 4 mps 679 mmHg 26%
    10:00 +34°C° 0 mm 4 mps 680 mmHg 23%
    11:00 +36°C° 0 mm 4 mps 680 mmHg 20%
    12:00 +37°C° 0 mm 4 mps 679 mmHg 18%
    13:00 +39°C° 0 mm 3 mps 678 mmHg 16%
    14:00 +40°C° 0 mm 3 mps 678 mmHg 14%
    15:00 +40°C° 0 mm 2 mps 677 mmHg 13%
    16:00 +40°C° 0 mm 2 mps 677 mmHg 12%
    17:00 +40°C° 0 mm 2 mps 677 mmHg 12%
    18:00 +38°C° 0 mm 2 mps 677 mmHg 14%
    19:00 +37°C° 0 mm 3 mps 677 mmHg 15%
    20:00 +35°C° 0 mm 3 mps 677 mmHg 17%
    21:00 +34°C° 0.1 mm 4 mps 678 mmHg 20%
    22:00 +33°C° 0.1 mm 5 mps 678 mmHg 23%
    23:00 +33°C° 0.1 mm 6 mps 679 mmHg 25%

    16 November, Friday

    Time Temperature Precipitation Wind Pressure Humidity
    00:00 +32°C° 0 mm 6 mps 678 mmHg 28%
    01:00 +30°C° 0 mm 5 mps 678 mmHg 30%
    02:00 +30°C° 0 mm 5 mps 677 mmHg 32%
    03:00 +29°C° 0 mm 4 mps 677 mmHg 32%
    04:00 +28°C° 0 mm 3 mps 677 mmHg 32%
    05:00 +27°C° 0 mm 2 mps 677 mmHg 32%
    06:00 +28°C° 0 mm 2 mps 678 mmHg 30%
    07:00 +29°C° 0 mm 3 mps 679 mmHg 28%
    08:00 +31°C° 0 mm 3 mps 680 mmHg 26%
    09:00 +33°C° 0 mm 3 mps 680 mmHg 23%
    10:00 +35°C° 0 mm 3 mps 680 mmHg 21%
    11:00 +36°C° 0 mm 3 mps 680 mmHg 19%
    12:00 +38°C° 0 mm 3 mps 680 mmHg 17%
    13:00 +39°C° 0 mm 3 mps 679 mmHg 15%
    14:00 +40°C° 0 mm 3 mps 679 mmHg 14%
    15:00 +40°C° 0 mm 3 mps 678 mmHg 13%
    16:00 +40°C° 0 mm 3 mps 678 mmHg 13%
    17:00 +40°C° 0 mm 3 mps 678 mmHg 12%
    18:00 +38°C° 0.1 mm 3 mps 678 mmHg 14%
    19:00 +37°C° 0.1 mm 3 mps 678 mmHg 16%
    20:00 +35°C° 0.1 mm 3 mps 678 mmHg 18%
    21:00 +34°C° 0 mm 3 mps 678 mmHg 18%
    22:00 +33°C° 0 mm 3 mps 678 mmHg 19%
    23:00 +31°C° 0 mm 3 mps 678 mmHg 19%

    17 November, Saturday

    Time Temperature Precipitation Wind Pressure Humidity
    00:00 +30°C° 0.1 mm 2 mps 678 mmHg 21%
    01:00 +29°C° 0.1 mm 2 mps 678 mmHg 23%
    02:00 +28°C° 0.1 mm 2 mps 677 mmHg 26%
    03:00 +27°C° 0 mm 2 mps 677 mmHg 27%
    04:00 +27°C° 0 mm 1 mps 677 mmHg 29%
    05:00 +26°C° 0 mm 1 mps 677 mmHg 31%
    06:00 +28°C° 0 mm 2 mps 678 mmHg 29%
    07:00 +29°C° 0 mm 3 mps 679 mmHg 28%
    08:00 +32°C° 0 mm 4 mps 680 mmHg 26%
    09:00 +34°C° 0 mm 4 mps 680 mmHg 23%
    10:00 +36°C° 0 mm 4 mps 680 mmHg 20%
    11:00 +39°C° 0 mm 5 mps 680 mmHg 16%
    12:00 +40°C° 0 mm 4 mps 679 mmHg 15%
    13:00 +40°C° 0 mm 3 mps 679 mmHg 13%
    14:00 +42°C° 0 mm 3 mps 678 mmHg 12%
    15:00 +42°C° 0 mm 3 mps 678 mmHg 12%
    16:00 +42°C° 0 mm 3 mps 677 mmHg 11%
    17:00 +40°C° 0 mm 3 mps 677 mmHg 11%
    18:00 +40°C° 0 mm 4 mps 677 mmHg 14%
    19:00 +37°C° 0 mm 4 mps 677 mmHg 16%
    20:00 +35°C° 0 mm 5 mps 677 mmHg 19%
    21:00 +34°C° 0 mm 4 mps 678 mmHg 19%
    22:00 +34°C° 0 mm 3 mps 678 mmHg 20%
    23:00 +34°C° 0 mm 2 mps 678 mmHg 20%

    18 November, Sunday

    Time Temperature Precipitation Wind Pressure Humidity
    00:00 +33°C° 0 mm 3 mps 678 mmHg 22%
    01:00 +32°C° 0 mm 4 mps 677 mmHg 23%
    02:00 +32°C° 0 mm 5 mps 677 mmHg 24%
    03:00 +30°C° 0 mm 4 mps 677 mmHg 27%
    04:00 +29°C° 0 mm 4 mps 677 mmHg 29%
    05:00 +28°C° 0 mm 4 mps 677 mmHg 32%
    06:00 +29°C° 0 mm 4 mps 678 mmHg 30%
    07:00 +30°C° 0 mm 5 mps 679 mmHg 28%
    08:00 +32°C° 0 mm 6 mps 680 mmHg 27%
    09:00 +34°C° 0 mm 7 mps 680 mmHg 26%
    10:00 +35°C° 0 mm 7 mps 680 mmHg 25%
    11:00 +36°C° 0 mm 7 mps 680 mmHg 24%
    12:00 +39°C° 0 mm 6 mps 679 mmHg 22%
    13:00 +40°C° 0 mm 6 mps 678 mmHg 20%
    14:00 +41°C° 0 mm 5 mps 678 mmHg 17%
    15:00 +41°C° 0 mm 5 mps 677 mmHg 17%
    16:00 +40°C° 0 mm 5 mps 677 mmHg 17%
    17:00 +40°C° 0 mm 5 mps 676 mmHg 16%
    18:00 +38°C° 0 mm 4 mps 676 mmHg 19%
    19:00 +36°C° 0 mm 4 mps 677 mmHg 21%
    20:00 +34°C° 0 mm 3 mps 677 mmHg 23%
    21:00 +33°C° 0.3 mm 5 mps 677 mmHg 30%
    22:00 +30°C° 0.3 mm 7 mps 678 mmHg 37%
    23:00 +28°C° 0.3 mm 9 mps 678 mmHg 44%
    Show more